Regional Weather Roundup
Issued by NWS

Home | Current Version | Previous Version | Graphics & Text | Print | Product List | Glossary On
Versions: 1 2 3 4 5 6 7 8 9 10 11 12 13 14 15 16 17 18 19 20 21 22 23 24 25 26 27 28 29 30 31 32 33 34 35 36 37 38 39 40 41 42 43 44 45 46 47 48 49 50
000
ASUS43 KDTX 060901
RWRMI
MICHIGAN HOURLY REGIONAL WEATHER ROUNDUP
NATIONAL WEATHER SERVICE DETROIT/PONTIAC MI
400 AM EST TUE DEC 06 2016

NOTE: "FAIR" INDICATES FEW OR NO CLOUDS BELOW 12,000 FEET WITH NO
SIGNIFICANT WEATHER AND/OR OBSTRUCTION TO VISIBILITY.

MIZ047>049-052>055-059>063-066>070-074>076-081>083-061000-
SOUTHEAST LOWER MICHIGAN

CITY           SKY/WX    TMP DP  RH WIND       PRES   REMARKS
ADRIAN         PTCLDY    30  30 100 E9        29.94F WCI  22
ALMA           CLEAR     29  28  94 E5        29.98F WCI  24
ANN ARBOR      CLOUDY    32  31  96 NE6       29.96F WCI  26
BAD AXE        PTCLDY    29  28  94 CALM      30.00F
CARO           CLEAR     28  28  99 CALM      29.99F FOG
DETROIT CITY   CLOUDY    35  33  92 E6        29.99F WCI  30
DETROIT        CLOUDY    34  31  88 NE3       29.99F FOG
FLINT          MOCLDY    26  24  92 E6        29.98F WCI  19
GROSSE ILE     CLOUDY    33  31  92 NE5       29.97F WCI  29
HILLSDALE      PTCLDY    32  30  93 E13       29.91F WCI  22
HOWELL         CLOUDY    31  29  92 E8        29.96F FOG     WCI  24

CITY           SKY/WX    TMP DP  RH WIND       PRES   REMARKS
JACKSON        FLURRIES  30  27  88 E9        29.94F WCI  22
LAMBERTVILLE   PTCLDY    35  31  87 E3        29.95F
LANSING        CLOUDY    28  25  88 E7        29.96F WCI  21
LAPEER         NOT AVBL
MASON          MOCLDY    30  29  96 E3        29.96R FOG
MONROE         CLOUDY    38  33  84 E5G16     29.96F WCI  34
MT. CLEMENS    CLOUDY    36  33  87 E10       29.98F WCI  29
PONTIAC        CLOUDY    32  28  85 E7        29.96F WCI  26
PORT HOPE        N/A     32  30  92 CALM      29.99F
PORT HURON     MOCLDY    23  21  93 CALM      30.01F FOG
TRI CITIES     PTCLDY    30  28  92 E3        30.00F FOG
MIDLAND        FAIR      28  27  93 CALM      29.99F FOG
TROY           CLOUDY    33  29  88 NE3       30.01F
SAGINAW HB     CLEAR     32  28  86 SE5       29.99F WCI  27
$$
MIZ043>046-050>051-056>058-064>065-071>073-077>080-061000-
SOUTHWEST LOWER MICHIGAN

CITY           SKY/WX    TMP DP  RH WIND       PRES   REMARKS
BATTLE CREEK   PTCLDY    30  28  92 E7        29.93S WCI  23
BENTON HARBOR  CLOUDY    31  28  89 E7        29.89F FOG     WCI  24
BIG RAPIDS     PTCLDY    32  28  86 SE7       29.95F WCI  25
COLDWATER      PTCLDY    32  29  89 E8        29.91F WCI  25
FREMONT        FAIR      31  27  86 E6        29.93F WCI  25
HOLLAND        PTCLDY    30  27  88 E7        29.92F WCI  23
GRAND RAPIDS   PTCLDY    29  26  89 E12       29.93F FOG     WCI  19
IONIA          FAIR      28  27  96 E9        29.94F WCI  20
KALAMAZOO      PTCLDY    30  27  88 E6        29.91F FOG     WCI  24
LUDINGTON      PTCLDY    32  30  91 SE6       29.92F WCI  26
MARSHALL       PTCLDY    30  29  94 E7        29.92S WCI  23
MOUNT PLEASANT PTCLDY    29  28  97 CALM      29.98S FOG
MUSKEGON       PTCLDY    31  28  89 E7        29.93F WCI  24
SOUTH HAVEN    PTCLDY    32  31  95 E8        29.89F FOG     WCI  25
$$
MIZ016>042-061000-
NORTHERN LOWER MICHIGAN

CITY           SKY/WX    TMP DP  RH WIND       PRES   REMARKS
ALPENA         PTCLDY    28  25  88 CALM      30.01S
BEAVER ISLAND  LGT RAIN  39  38  96 CALM      29.94F
BELLAIRE       CLOUDY    32  32  99 CALM      29.95F FOG
CADILLAC       CLOUDY    31  29  92 SE7       29.93S FOG     WCI  25
CHARLEVOIX     CLOUDY    35  32  89 SE6       29.98S WCI  30
FRANKFORT      PTCLDY    33  32  94 CALM      29.93S
GAYLORD        CLOUDY    31  27  85 SE5       29.94F WCI  26
GRAYLING       CLOUDY    31  31  98 E6        29.96F FOG     WCI  26
HARBOR SPRINGS CLOUDY    33  31  92 E6        29.96F WCI  27
HOUGHTON LAKE  PTCLDY    30  29  96 SE5       29.97R FOG     WCI  25
MANISTEE       PTCLDY    33  30  88 E6        29.94R WCI  28
OSCODA         CLOUDY    30  29  94 MISG      30.00F FOG
PELLSTON       CLOUDY    34  30  85 SE8       29.97F WCI  27
ROGERS CITY    PTCLDY    33  30  88 S7        30.00F WCI  27
TRAVERSE CITY  CLOUDY    35  31  85 SE5       29.93F WCI  31
$$
MIZ007>008-015-061000-
EASTERN UPPER MICHIGAN

CITY           SKY/WX    TMP DP  RH WIND       PRES   REMARKS
KINROSS        CLOUDY    33  32  96 S6        29.97S WCI  28
MACKINAC ISLAN CLOUDY    36  32  88 SE8       29.96F WCI  29
NEWBERRY       MIX PCPN  32  31  97 CALM      29.94S
S. S. MARIE    CLOUDY    35  31  85 NE5       29.97R WCI  31
MUNISING         N/A     36  34  92 S5        29.86F WCI  32
$$
MIZ004>006-011>014-085-061000-
CENTRAL UPPER MICHIGAN

CITY           SKY/WX    TMP DP  RH WIND       PRES   REMARKS
MANISTIQUE     PTCLDY    37  35  92 E5        29.89F WCI  33
ESCANABA       CLOUDY    43  38  82 SE12G20   29.87F
MENOMINEE      CLOUDY    40  36  86 S10       29.86F WCI  33
SAWYER-GWINN   CLOUDY    33  32  98 S10       29.83F FOG     WCI  25
$$
MIZ001>003-009>011-084-061000-
WESTERN UPPER MICHIGAN

CITY           SKY/WX    TMP DP  RH WIND       PRES   REMARKS
IRON MOUNTAIN  CLOUDY    34  32  92 S10       29.81F FOG     WCI  26
HOUGHTON       CLOUDY    37  33  85 E9        29.75F WCI  30
COPPER HARBOR    N/A     39  36  89 MISG      29.80R
IRONWOOD       CLOUDY    36  28  73 S14G21    29.67F WCI  27
$$

ABBREVIATIONS USED IN REMARKS
   TC - TEMPERATURE IN CELSIUS
  WCI - WIND CHILL INDEX
   HX - HEAT INDEX
  VSB - VISIBILITY




USA.gov is the U.S. government's official web portal to all federal, state and local government web resources and services.